Location: Unspecified
(47.9110°N, 14.3980°E)
Time: 09:48:55
(UTC+00:00)

ATLAS 5 CENTAUR R/B - Pass Details

Date: 06 August 2020
Orbit: 533 x 1125 km, 63.4° (Epoch: 19 September)

Event Time Altitude Azimuth Distance (km) Brightness Sun altitude
Rises 19:39:00 0° 318° (NW) 3,256 7.3 -10.6°
Reaches altitude 10° 19:41:15 10° 317° (NW) 2,410 6.1 -10.9°
Maximum altitude 19:46:54 78° 232° (SW) 940 2.5 -11.6°
Enters shadow 19:52:29 15° 148° (SSE) 2,434 4.0 -12.3°
